Retour au catalogue

UME 1

ISS 1

ActifScienceLEO
NORAD 8709·PAYLOAD·🇯🇵 Japan

Lancé Feb 29, 1976 depuis Tanegashima Space Center

Loading…

Prochains Passages (prochaines 24 heures)

TLE

FraisSource: Space-Track

Époque: Sep 14, 2026, 14:17 UTC

1 08709U 76019A   26257.59573295  .00000003  00000-0  61208-4 0  9998
2 08709  69.6745 309.8184 0011174 200.7554 311.8406 13.71751576529353

Suivez UME 1 en temps réel avec AllMySat

Download on the App Store